SL-16 DEB, 23706

Orbit data source: Space-Track

SL-16 DEB, 23706 is space debris in LEO originally from a launch on Tue, 31 Oct 1995 UTC launched from the Tyuratam Missile And Space Complex (TTMTR). Debris objects in space refer to the collection of defunct objects orbiting the Earth. Examples of debris include non-operational satellites, rocket bodies, and fragments generated from explosions, collisions, or faulty payload assembly.

Loading next visibility...
Identifier
23706, 1995-058C
Orbit
LEO
Last TLE update
10 hours ago
Origin
Manufacturer
Yuzhnoe
Mission
Spacecraft
Bus & Motor
SEP MOTOR COVER, Unknown motor
Mass
~0 kg wet, ~1 kg dry
Launch date (UTC)
1995-10-31 (30 years ago)
Launch vehicle
Unknown
Launch site
Tyuratam Missile And Space Complex (TTMTR)
Object type
Payload
Rocket body
Debris
Shape & HBR
Unknown
Radar Cross Section
Small (<0.1 m²)

Expand to show TLE details & history

TLE from 10 hours ago
0 SL-16 DEB
1 23706U 95058C   25186.91100772  .00000100  00000-0  13062-3 0  9990
2 23706  71.0007  34.9950 0198769 176.0938 290.4668 13.74316183487741
Epoch: 2025-07-05T21:51Z
TLE epoch observation values (Epoch: 2025-07-05T21:51:51.067Z)
Latitude
66.41727°
Longitude
-88.79654°
Altitude
946.461 km
Speed
7.409 km/s
True Right ascension
10h 53m 14s
True Declination
66° 17' 39"
Sunlit
Object was in daylight at epoch
Visualization orbit readout
Latitude
35.97633°
Longitude
156.45784°
Altitude
1,094.383 km
Speed
7.256 km/s
Apparent Right ascension
05h 19m 23s
Apparent Declination
1° 54' 43"
Sunlit
Object is in daylight
Visualization observer readout
Local Sidereal Time
19:59:03
Azimuth
51.102° ENE
Elevation
-34.508°
Doppler factor
1
Orbital elements
Apogee altitude
1,128.378 km
Perigee altitude
835.781 km
Semi-major axis
7,360.217 km
Eccentricity
0.01988
Inclination
71.0007°
RAAN
34.995°
Arg. of periapsis
176.0938°
True anomaly
Unknown
Mean anomaly
290.4668°
Eccentric anomaly
Unknown
Mean motion
3.43722 °/min
Orbital period
104.74 mins
BSTAR
0.00013062
Loading maneuver chart data...
Loading SW <> Apogee altitude chart data...
Loading historical data...
Loading historical data...
Loading historical data...
Loading historical data...
Loading historical data...
Loading historical data...
Loading historical data...

SL-16 DEB Visibility forecast

Observer location: undefined°, undefined°

Span
Click to sort rows by Start time (UTC) header in descending order
Start Az.
Max El. time (UTC)
Max El. Az.
Max El.
End time (UTC)
End Az.
12 mins2025-07-06 14:55:17.865Z187.862° SSW2025-07-06 15:01:17.865Z115.96° SE42.36°2025-07-06 15:07:17.865Z30.084° NE
9 mins2025-07-06 16:45:17.865Z264.674° W2025-07-06 16:49:17.865Z309.119° NW22.646°2025-07-06 16:54:17.865Z359.378° N
8 mins2025-07-07 00:08:17.865Z1.665° NNE2025-07-07 00:12:17.865Z64.291° ENE30.199°2025-07-07 00:16:17.865Z119.434° SE
8 mins2025-07-07 01:55:17.865Z309.331° NW2025-07-07 01:59:17.865Z251.901° W27.045°2025-07-07 02:03:17.865Z200.427° SSW
|